Lid_Strength_Index
3 5 2 3 10 11 14 11 8 9 9 6 6 7 8 7 9 12 2 0 -0 -0 -0 -1 -2 -2 -2 -2 -2 -2 -2 -2 -2 -2 -2 -2 -1 -2 -2 -2 -2 -2 -2 -2 -2 -2 -2 -2 -2
6 4 2 6 13 16 14 9 10 8 7 6 6 6 8 9 5 4 3 0 -0 -0 -0 -0 -2 -2 -2 -2 -2 -2 -2 -2 -2 -2 -2 -2 -1 -2 -2 -2 -3 -3 -3 -2 -2 -2 -2 -2 -2
5 3 7 10 13 16 14 9 8 7 6 6 7 5 6 8 4 3 1 -0 -0 0 -0 -1 -2 -2 -2 -2 -2 -2 -2 -2 -2 -2 -2 -2 -2 -2 -2 -2 -3 -3 -3 -2 -2 -2 -2 -2 -2
5 4 6 12 14 11 10 8 7 7 6 5 6 8 5 2 3 2 0 -0 -0 1 0 -1 -2 -2 -2 -2 -2 -2 -2 -2 -2 -2 -2 -2 -2 -2 -2 -2 -3 -3 -3 -2 -2 -2 -2 -2 -2
3 6 12 13 13 10 8 7 6 7 7 7 6 9 7 3 2 1 0 -0 1 1 0 -0 -2 -2 -2 -2 -2 -2 -2 -2 -2 -2 -2 -2 -2 -2 -2 -2 -3 -3 -3 -2 -2 -2 -2 -2 -2
7 7 13 15 13 10 8 7 6 7 7 7 7 8 7 2 2 1 0 1 1 1 0 -0 -2 -2 -2 -2 -2 -2 -2 -2 -2 -2 -2 -2 -2 -2 -2 -3 -3 -3 -3 -3 -2 -2 -2 -2 -2
8 10 14 13 13 11 9 6 7 7 7 7 5 9 6 4 2 1 1 2 2 1 1 1 0 -1 -2 -2 -2 -2 -2 -2 -2 -2 -2 -2 -2 -3 -3 -3 -3 -3 -3 -3 -3 -2 -2 -2 -2
7 9 14 12 13 12 8 7 5 7 8 4 4 9 8 4 1 1 2 3 3 2 3 2 1 1 1 1 -2 -2 -2 -2 -2 -2 -2 -3 -3 -3 -3 -2 -3 -3 -3 -3 -3 -2 -2 -2 -1
7 11 14 12 12 10 7 8 6 5 6 6 4 5 4 2 1 2 4 4 3 3 4 4 3 1 1 1 -0 -2 -2 -2 -2 -2 -2 1 3 3 1 -3 -3 -3 -3 -3 -2 -2 -3 -2 -1
8 11 11 8 8 9 7 7 7 7 7 7 6 4 3 3 3 3 4 4 4 4 4 5 5 4 3 -0 1 1 0 1 1 1 6 6 5 3 1 -0 -2 -2 -2 -2 -1 -1 0 2 4
9 10 8 7 7 7 7 8 7 7 9 7 7 6 4 4 4 4 4 4 4 4 4 6 5 5 4 3 3 2 2 2 3 3 6 6 5 5 5 5 4 4 2 4 4 5 5 6 6
11 8 7 7 6 7 8 7 7 6 7 5 5 4 4 4 4 4 4 4 5 6 6 6 6 5 6 5 5 4 3 4 3 5 5 6 5 5 5 5 6 5 5 5 5 5 6 7 7
9 8 7 7 7 7 6 8 7 7 6 4 4 4 4 4 4 3 3 3 4 6 5 6 5 6 6 5 6 5 4 4 5 5 4 4 5 5 5 6 5 5 5 5 5 6 6 7 7
7 8 8 7 7 7 7 8 8 7 5 5 5 5 4 4 4 5 5 4 4 5 4 5 5 6 6 6 6 5 5 5 5 5 5 4 5 5 6 5 5 5 5 5 5 6 7 7 7
7 10 8 8 8 8 8 10 10 6 5 6 6 5 5 4 4 5 6 4 3 3 3 4 4 5 6 6 5 6 6 4 5 5 4 4 5 5 5 5 5 5 5 5 5 6 7 7 7
9 9 13 9 8 7 9 12 9 6 6 7 6 5 5 5 4 5 5 4 4 4 4 4 3 5 6 5 5 5 6 4 4 4 4 4 4 4 4 5 5 5 4 5 6 7 8 7 8
11 14 13 10 7 9 9 11 9 6 6 7 6 6 5 5 4 6 5 5 6 5 5 6 4 5 5 5 4 5 5 4 4 4 5 4 4 3 4 4 5 4 5 6 8 9 9 9 9
13 14 13 13 9 9 11 10 9 7 7 7 7 6 6 5 5 5 6 6 5 5 6 7 5 5 5 5 5 5 5 4 4 4 4 4 3 3 4 4 5 5 6 6 8 10 11 10 10
10 12 12 11 9 10 10 10 10 8 8 8 8 7 6 6 4 5 7 6 6 6 7 7 6 5 5 6 6 6 5 5 5 4 4 4 3 3 4 5 6 6 7 7 7 9 12 12 12
10 11 12 10 8 9 10 10 9 9 8 8 7 7 6 6 5 4 8 7 6 7 7 7 6 5 5 5 6 6 6 6 5 5 5 4 3 4 5 6 6 7 8 9 9 9 11 12 13
11 12 12 11 10 10 12 13 12 10 8 7 7 6 6 6 6 5 8 7 7 7 7 6 6 6 4 5 5 6 6 6 6 5 5 4 4 4 5 6 6 8 9 10 12 11 12 13 13
13 10 10 10 12 14 12 16 14 11 10 9 8 7 7 6 5 4 8 8 7 6 6 6 5 6 5 5 5 6 6 7 7 6 5 5 4 5 5 6 7 9 10 11 11 12 13 13 14
11 9 10 11 13 14 14 15 14 11 12 10 9 7 7 6 5 5 7 7 6 6 6 6 5 5 5 5 4 5 6 6 6 5 6 6 6 5 6 7 8 9 10 11 12 12 13 13 14
8 10 11 13 13 16 14 15 15 13 11 9 8 7 6 6 5 4 5 8 7 7 6 6 6 5 5 5 5 5 5 6 6 6 7 6 6 6 7 7 8 10 11 11 12 12 12 13 14
10 12 16 17 17 18 13 14 13 10 8 9 8 7 6 5 5 5 5 8 8 7 6 6 6 5 5 5 5 5 5 5 6 6 6 6 6 6 7 8 9 10 11 11 11 12 12 13 14
11 11 16 19 19 16 13 15 12 9 8 7 7 6 6 6 6 5 4 7 8 7 6 6 6 5 5 6 5 4 5 5 5 5 5 5 6 7 7 8 9 10 11 11 11 12 13 13 15
11 13 11 14 15 17 15 13 10 9 9 8 8 7 7 6 5 5 4 6 7 7 6 6 6 5 4 5 5 5 4 4 4 5 5 5 5 7 8 8 9 10 11 11 11 12 13 14 15
10 9 14 15 19 20 16 15 14 11 10 9 9 8 7 6 5 5 4 5 7 6 6 6 5 6 5 5 5 4 4 4 4 5 5 5 5 7 8 9 9 10 11 11 12 12 13 14 15
11 12 12 12 14 18 19 16 11 10 9 8 8 7 7 6 6 5 4 4 6 6 6 6 6 6 6 5 5 4 5 4 4 4 5 5 6 7 8 9 10 10 11 11 12 12 13 14 15
10 11 11 16 16 15 16 15 10 9 9 8 8 7 7 6 5 5 4 4 5 6 6 6 6 6 5 5 6 5 5 4 4 4 4 5 6 7 8 9 10 10 11 11 12 12 13 14 15